Latest Coastal Weather Observations for Taree Airport

IDN60701

Issued at 3:35 am EDT Saturday 22 November 2014 (issued every 10 minutes, with the page automatically refreshed every 10 minutes)

About coastal observations | Map of coastal stations | Coastal observations for NSW | Marine services | Other Formats
Station Details ID: 060141 Name: TAREE AIRPORT AWS Lat: -31.89 Lon: 152.51 Height: 8.0 m
Data from the previous 72 hours. | See also: Recent months at Taree Airport
Date/Time
EDT
Temp

°C
Wind Pressure Rain
since 9am
mm
Weather Cloud Vis
km
Sea
Height
m
Swell
Dir
 
Speed
knots
Gust
knots
hPa Trend Height
m
Period
s
Dir
22/03:30am 22.9 SW 9 12 1010.4 - - - - - - - - -
22/03:00am 22.9 SW 14 20 1010.5 - 0.0 - - - - - - -
22/02:30am 23.2 WSW 12 17 1010.5 - - - - - - - - -
22/02:00am 23.4 SW 11 16 1010.5 - - - - - - - - -
22/01:30am 23.1 SSW 8 11 1010.7 - - - - - - - - -
22/01:00am 22.7 SSW 9 11 1010.5 - - - - - - - - -
22/12:30am 23.3 S 8 11 1010.1 - - - - - - - - -
22/12:00am 23.8 S 8 11 1009.3 - - - - - - - - -
 
Date/Time
EDT
Temp

°C
Wind Pressure Rain
since 9am
mm
Weather Cloud Vis
km
Sea
Height
m
Swell
Dir
 
Speed
knots
Gust
knots
hPa Trend Height
m
Period
s
Dir
21/11:30pm 22.5 E 1 4 1008.1 - - - - - - - - -
21/11:00pm 22.9 CALM 0 0 1007.5 - - - - - - - - -
21/10:30pm 23.3 E 4 5 1007.2 - - - - - - - - -
21/10:00pm 23.6 E 4 5 1007.2 - - - - - - - - -
21/09:30pm 24.4 SE 4 5 1007.2 - - - - - - - - -
21/09:00pm 25.3 ESE 3 4 1007.1 - 0.0 - - - - - - -
21/08:30pm 25.7 ENE 4 5 1006.8 - - - - - - - - -
21/08:00pm 25.5 ESE 4 5 1006.7 - - - - - - - - -
21/07:30pm 26.1 NNE 3 7 1006.6 - - - - - - - - -
21/07:00pm 26.9 ENE 8 10 1005.8 - - - - - - - - -
21/06:30pm 28.1 ENE 8 10 1005.3 - - - - - - - - -
21/06:00pm 28.7 ESE 7 9 1004.9 - - - - - - - - -
21/05:30pm 29.5 SE 7 10 1004.8 - - - - - - - - -
21/05:00pm 29.8 ESE 10 14 1004.4 - - - - - - - - -
21/04:30pm 32.0 ENE 9 12 1004.0 - - - - - - - - -
21/04:00pm 32.4 ENE 9 14 1003.8 - - - - - - - - -
21/03:30pm 32.9 ENE 10 15 1004.0 - - - - - - - - -
21/03:00pm 32.6 E 8 13 1004.5 - - - - - - - - -
21/02:30pm 31.8 ENE 12 15 1004.8 - - - - - - - - -
21/02:00pm 33.1 WNW 6 11 1004.9 - - - - - - - - -
21/01:30pm 34.8 ENE 14 18 1005.2 - - - - - - - - -
21/01:00pm 34.7 E 11 16 1005.6 - - - - - - - - -
21/12:30pm 35.5 E 10 15 1005.9 - - - - - - - - -
21/12:00pm 34.1 E 9 10 1006.5 - - - - - - - - -
21/11:30am 34.3 ENE 7 8 1006.8 - 0.0 - - - - - - -
21/11:00am 32.3 - - - 1007.5 - 0.0 - - - - - - -
21/10:30am 29.9 - - - 1007.9 - 0.0 - - - - - - -
21/10:00am 27.8 - - - 1008.3 - 0.0 - - - - - - -
21/09:30am 26.5 - - - 1008.6 - 0.0 - - - - - - -
21/09:00am 25.2 - - - 1008.8 - 0.4 - - - - - - -
21/08:30am 24.3 - - - 1008.8 - 0.4 - - - - - - -
21/08:00am 23.2 - - - 1008.7 - 0.4 - - - - - - -
21/07:30am 22.5 - - - 1008.7 - 0.4 - - - - - - -
21/07:00am 22.1 - - - 1008.5 - 0.4 - - - - - - -
21/06:30am 21.4 - - - 1008.4 - 0.4 - - - - - - -
21/06:00am 21.6 - - - 1008.2 - 0.4 - - - - - - -
21/05:30am 20.8 - - - 1007.8 - 0.4 - - - - - - -
21/05:00am 21.3 - - - 1007.7 - 0.4 - - - - - - -
21/04:30am 21.1 - - - 1007.5 - 0.4 - - - - - - -
21/04:00am 21.2 - - - 1007.6 - 0.4 - - - - - - -
21/03:30am 22.3 - - - 1007.6 - 0.4 - - - - - - -
21/03:00am 22.3 - - - 1007.4 - 0.4 Recent precip. - - - - - -
21/02:30am 22.3 - - - 1007.6 - 0.4 - - - - - - -
21/02:00am 22.7 - - - 1008.6 - 0.2 - - - - - - -
21/01:30am 22.6 - - - 1008.0 - 0.0 - - - - - - -
21/01:00am 22.8 - - - 1008.2 - 0.0 - - - - - - -
21/12:30am 22.7 - - - 1008.7 - 0.0 - - - - - - -
21/12:00am 23.2 - - - 1009.1 - 0.0 - - - - - - -
 
Date/Time
EDT
Temp

°C
Wind Pressure Rain
since 9am
mm
Weather Cloud Vis
km
Sea
Height
m
Swell
Dir
 
Speed
knots
Gust
knots
hPa Trend Height
m
Period
s
Dir
20/11:30pm 23.7 - - - 1009.5 - 0.0 - - - - - - -
20/11:00pm 24.1 - - - 1009.6 - 0.0 - - - - - - -
20/10:30pm 23.7 - - - 1009.3 - 0.0 - - - - - - -
20/10:00pm 24.3 - - - 1009.6 - 0.0 - - - - - - -
20/09:30pm 24.4 - - - 1009.5 - 0.0 - - - - - - -
20/09:00pm 24.7 - - - 1009.2 - 0.0 - - - - - - -
20/08:30pm 25.2 - - - 1008.9 - 0.0 - - - - - - -
20/08:00pm 25.5 - - - 1008.6 - 0.0 - - - - - - -
20/07:30pm 26.3 - - - 1008.5 - 0.0 - - - - - - -
20/07:00pm 27.3 - - - 1008.2 - 0.0 - - - - - - -
20/06:30pm 28.7 - - - 1007.9 - 0.0 - - - - - - -
20/06:00pm 29.3 - - - 1007.6 - 0.0 - - - - - - -
20/05:30pm 30.4 - - - 1007.8 - 0.0 - - - - - - -
20/05:00pm 30.6 - - - 1007.8 - 0.0 - - - - - - -
20/04:30pm 30.7 - - - 1008.0 - 0.0 - - - - - - -
20/04:00pm 30.6 - - - 1008.1 - 0.0 - - - - - - -
20/03:30pm 30.1 - - - 1008.4 - 0.0 - - - - - - -
20/03:00pm 30.7 - - - 1008.8 - 0.0 - - - - - - -
20/02:30pm 30.3 - - - 1009.2 - 0.0 - - - - - - -
20/02:00pm 31.1 - - - 1009.7 - 0.0 - - - - - - -
20/01:30pm 29.7 - - - 1010.7 - 0.0 - - - - - - -
20/01:00pm 30.4 - - - 1011.3 - 0.0 - - - - - - -
20/12:30pm 30.5 - - - 1011.9 - 0.0 - - - - - - -
20/12:00pm 31.2 - - - 1012.5 - 0.0 - - - - - - -
20/11:30am 30.2 - - - 1013.0 - 0.0 - - - - - - -
20/11:00am 29.7 - - - 1013.5 - 0.0 - - - - - - -
20/10:30am 29.0 - - - 1014.0 - 0.0 - - - - - - -
20/10:00am 28.3 - - - 1014.6 - 0.0 - - - - - - -
20/09:30am 27.1 - - - 1014.9 - 0.0 - - - - - - -
20/09:00am 25.6 - - - 1015.4 - 0.0 - - - - - - -
20/08:30am 24.8 - - - 1015.8 - 0.0 - - - - - - -
20/08:00am 22.8 - - - 1016.0 - 0.0 - - - - - - -
20/07:30am 21.5 - - - 1016.0 - 0.0 - - - - - - -
20/07:00am 19.8 - - - 1016.1 - 0.0 - - - - - - -
20/06:30am 19.2 - - - 1015.8 - 0.0 - - - - - - -
20/06:00am 19.9 - - - 1015.6 - 0.0 - - - - - - -
20/05:30am 19.1 - - - 1015.5 - 0.0 - - - - - - -
20/05:00am 18.3 - - - 1015.6 - 0.0 - - - - - - -
20/04:30am 18.8 - - - 1015.5 - 0.0 - - - - - - -
20/04:00am 19.1 - - - 1015.4 - 0.0 - - - - - - -
20/03:30am 19.3 - - - 1015.4 - 0.0 - - - - - - -
20/03:00am 18.0 - - - 1015.8 - 0.0 - - - - - - -
20/02:30am 18.2 - - - 1016.1 - 0.0 - - - - - - -
20/02:00am 17.9 - - - 1016.3 - 0.0 - - - - - - -
20/01:30am 18.4 - - - 1016.4 - 0.0 - - - - - - -
20/01:00am 18.3 - - - 1016.6 - 0.0 - - - - - - -
20/12:30am 18.4 - - - 1017.0 - 0.0 - - - - - - -
20/12:00am 19.2 - - - 1017.3 - 0.0 - - - - - - -
 
Date/Time
EDT
Temp

°C
Wind Pressure Rain
since 9am
mm
Weather Cloud Vis
km
Sea
Height
m
Swell
Dir
 
Speed
knots
Gust
knots
hPa Trend Height
m
Period
s
Dir
19/11:30pm 19.2 - - - 1017.4 - 0.0 - - - - - - -
19/11:00pm 19.5 - - - 1017.6 - 0.0 - - - - - - -
19/10:30pm 19.9 - - - 1017.7 - 0.0 - - - - - - -
19/10:00pm 20.2 - - - 1017.7 - 0.0 - - - - - - -
19/09:30pm 20.5 - - - 1017.7 - 0.0 - - - - - - -
19/09:00pm 20.8 - - - 1017.3 - 0.0 - - - - - - -
19/08:30pm 21.1 - - - 1017.1 - 0.0 - - - - - - -
19/08:00pm 21.4 - - - 1016.9 - 0.0 - - - - - - -
19/07:30pm 22.1 - - - 1016.7 - 0.0 - - - - - - -
19/07:00pm 22.8 - - - 1016.6 - 0.0 - - - - - - -
19/06:30pm 23.6 - - - 1016.1 - 0.0 - - - - - - -
19/06:00pm 24.4 - - - 1016.3 - 0.0 - - - - - - -
19/05:30pm 24.6 - - - 1016.3 - 0.0 - - - - - - -
19/05:00pm 24.2 - - - 1016.3 - 0.0 - - - - - - -
19/04:30pm 24.9 - - - 1016.4 - 0.0 - - - - - - -
19/04:00pm 24.7 - - - 1016.7 - 0.0 - - - - - - -
19/03:30pm 25.9 - - - 1017.0 - 0.0 - - - - - - -
19/03:00pm 25.5 - - - 1017.5 - 0.0 - - - - - - -
19/02:30pm 25.6 - - - 1017.9 - 0.0 - - - - - - -
19/02:00pm 25.2 - - - 1018.5 - 0.0 - - - - - - -
19/01:30pm 24.9 - - - 1018.9 - 0.0 - - - - - - -
19/01:00pm 24.2 - - - 1019.5 - 0.0 - - - - - - -
19/12:30pm 25.1 - - - 1019.6 - 0.0 - - - - - - -
19/12:00pm 24.8 - - - 1020.0 - 0.0 - - - - - - -
19/11:30am 24.3 - - - 1020.4 - 0.0 - - - - - - -
19/11:00am 23.5 - - - 1020.7 - 0.0 - - - - - - -
19/10:30am 22.8 - - - 1020.9 - 0.0 - - - - - - -
19/10:00am 23.8 - - - 1020.9 - 0.0 - - - - - - -
19/09:30am 22.6 - - - 1021.0 - 0.0 - - - - - - -
19/09:00am 22.2 - - - 1021.0 - - - - - - - - -
19/08:30am 20.9 - - - 1020.8 - - - - - - - - -
19/08:00am 19.1 - - - 1020.9 - - - - - - - - -
19/07:30am 17.4 - - - 1020.6 - - - - - - - - -
19/07:00am 16.2 - - - 1020.4 - - - - - - - - -
19/06:30am 15.3 - - - 1019.8 - - - - - - - - -
19/06:00am 14.6 - - - 1019.5 - - - - - - - - -
19/05:30am 14.1 - - - 1019.3 - - - - - - - - -
19/05:00am 13.9 - - - 1019.1 - - - - - - - - -
19/04:30am 14.0 - - - 1018.9 - - - - - - - - -
19/04:00am 14.7 - - - 1018.6 - - - - - - - - -

Other Formats:

Comma delimited format used in spreadsheet applications
http://www.bom.gov.au/fwo/IDN60701/IDN60701.95784.axf

JavaScript Object Notation format (JSON) in row-major order
http://www.bom.gov.au/fwo/IDN60701/IDN60701.95784.json